Weather History for Fort Myers, FL

Change the Weather History Date:

Thursday, October 28, 2010

  Actual Average Record
Temperature  
Mean Temperature 82 °F 75 °F  
Max Temperature 91 °F 85 °F 91 °F (1978)
Min Temperature 73 °F 66 °F 45 °F (1957)
Degree Days  
Heating Degree Days 0 0  
Month to date heating degree days 0 0  
Since 1 July heating degree days 0 0  
Cooling Degree Days 17 10  
Month to date cooling degree days 346 371  
Year to date cooling degree days 3595 3617  
Growing Degree Days 32 (Base 50)    
Moisture  
Dew Point 72 °F    
Average Humidity 72    
Maximum Humidity 91    
Minimum Humidity 50    
Precipitation  
Precipitation 0.42 in 0.07 in 2.01 in (2011)
Month to date precipitation 0.45 2.68  
Year to date precipitation 49.99 52.06  
Sea Level Pressure  
Sea Level Pressure 30.02 in    
Wind  
Wind Speed 5 mph (WNW)    
Max Wind Speed 15 mph    
Max Gust Speed 22 mph    
Visibility 8 miles    
Events Rain , Thunderstorm    
T = Trace of Precipitation, MM = Missing Value Source: NWS Daily Summary

Daily Weather History Graph

Daily Weather History Graph

Search for Another Location

Airport:

Trip Planner

Search our weather history database for the weather conditions in past years. The results will help you decide how hot, cold, wet, or windy it might be!

Date:

Astronomy

Oct. 28, 2010 Rise Set
Actual Time 7:34 AM EDT 6:47 PM EDT
Civil Twilight 7:10 AM EDT 7:11 PM EDT
Nautical Twilight 6:43 AM EDT 7:38 PM EDT
Astronomical Twilight 6:16 AM EDT 8:05 PM EDT
Moon 11:31 PM EDT (10/28) 12:37 PM EDT (10/28)
Length of Visible Light 12h 01m
Length of Day
11h 13m
Waning Gibbous, 70% of the Moon is Illuminated
Oct 28
Waning Gibbous
Oct 30
Last Quarter
Nov 6
New
Nov 13
First Quarter
Nov 21
Full

Hourly Weather History & Observations

Time (EDT) Temp. Heat Index Dew Point Humidity Pressure Visibility Wind Dir Wind Speed Gust Speed Precip Events Conditions
12:20 PM 86.0 °F 91.8 °F 71.6 °F 62% 30.09 in 10.0 mi NE 5.8 mph - N/A   Overcast
12:48 PM 86.0 °F 90.4 °F 69.8 °F 58% 30.08 in 10.0 mi ESE 8.1 mph - N/A   Scattered Clouds
12:53 PM 88.0 °F 92.9 °F 70.0 °F 55% 30.08 in 10.0 mi SE 4.6 mph - N/A   Scattered Clouds
1:53 PM 90.0 °F 93.6 °F 68.0 °F 48% 30.05 in 10.0 mi NNE 5.8 mph - N/A   Overcast
2:53 PM 90.0 °F 94.5 °F 69.1 °F 50% 30.02 in 10.0 mi WNW 5.8 mph - N/A   Scattered Clouds
3:53 PM 86.0 °F 92.2 °F 72.0 °F 63% 30.01 in 10.0 mi West 11.5 mph - N/A   Mostly Cloudy
4:53 PM 87.1 °F 93.6 °F 72.0 °F 61% 29.99 in 10.0 mi West 11.5 mph - N/A   Partly Cloudy
5:32 PM 87.8 °F 93.8 °F 71.6 °F 58% 29.98 in 10.0 mi WSW 11.5 mph - N/A Thunderstorm Scattered Clouds
5:53 PM 86.0 °F 91.5 °F 71.1 °F 61% 29.99 in 10.0 mi West 10.4 mph - N/A Thunderstorm Thunderstorm
6:20 PM 82.4 °F 87.2 °F 71.6 °F 70% 30.00 in 10.0 mi South 11.5 mph 21.9 mph 0.00 in Rain Light Rain
6:37 PM 77.0 °F - 71.6 °F 83% 30.02 in 1.8 mi NNE 11.5 mph - 0.04 in Rain , Thunderstorm Heavy Thunderstorms and Rain
6:44 PM 73.4 °F - 69.8 °F 88% 30.01 in 0.8 mi Variable 5.8 mph - 0.16 in Rain , Thunderstorm Heavy Thunderstorms and Rain
6:53 PM 75.9 °F - 70.0 °F 82% 30.01 in 0.5 mi Variable 4.6 mph - 0.37 in Rain , Thunderstorm Heavy Thunderstorms and Rain
7:01 PM 75.2 °F - 71.6 °F 89% 30.00 in 2.0 mi WNW 8.1 mph - 0.04 in Rain , Thunderstorm Thunderstorms and Rain
7:05 PM 77.0 °F - 71.6 °F 83% 30.00 in 5.0 mi WNW 9.2 mph - 0.05 in   Overcast
7:53 PM 78.1 °F - 73.9 °F 87% 30.02 in 10.0 mi WNW 3.5 mph - 0.05 in   Partly Cloudy
8:53 PM 79.0 °F - 75.0 °F 88% 30.03 in 10.0 mi NW 5.8 mph - N/A   Mostly Cloudy
9:53 PM 79.0 °F - 75.0 °F 88% 30.03 in 10.0 mi NNW 3.5 mph - N/A   Overcast
10:53 PM 79.0 °F - 73.9 °F 84% 30.04 in 10.0 mi NW 4.6 mph - N/A   Mostly Cloudy
11:53 PM 78.1 °F - 73.9 °F 87% 30.03 in 10.0 mi NW 5.8 mph - N/A   Mostly Cloudy